Teterboro, NJ

1:51 PM EST on December 10, 2016 (GMT -0500)
Teterboro

Weather History for KTEB - May, 2013

Change the Weather History Date:

Sunday, May 26, 2013

  Actual Average Record
Temperature  
Mean Temperature 55 °F -  
Max Temperature 66 °F 71 °F 93 °F (2014)
Min Temperature 46 °F 51 °F 46 °F (2013)
Degree Days  
Heating Degree Days 10    
Growing Degree Days 5 (Base 50)    
Moisture  
Dew Point 37 °F    
Average Humidity 50    
Maximum Humidity 71    
Minimum Humidity 33    
Precipitation  
Precipitation 0.00 in - - ()
Sea Level Pressure  
Sea Level Pressure 30.04 in    
Wind  
Wind Speed 13 mph (NW)    
Max Wind Speed 21 mph    
Max Gust Speed 33 mph    
Visibility 10 miles    
Events      
Averages and records for this station are not official NWS values.
T = Trace of Precipitation, MM = Missing Value Source: NWS Daily Summary

Daily Weather History Graph

Daily Weather History Graph

Search for Another Location

Airport or City:

Trip Planner

Search our weather history database for the weather conditions in past years. The results will help you decide how hot, cold, wet, or windy it might be!

Date:

Astronomy

May. 26, 2013 Rise Set
Actual Time 5:29 AM EDT 8:17 PM EDT
Civil Twilight 4:57 AM EDT 8:49 PM EDT
Nautical Twilight 4:17 AM EDT 9:30 PM EDT
Astronomical Twilight 3:30 AM EDT 10:16 PM EDT
Moon 10:02 PM EDT (5/26) 6:56 AM EDT (5/26)
Length of Visible Light 15h 51m
Length of Day
14h 47m
Waning Gibbous, 97% of the Moon is Illuminated
May 26
Waning Gibbous
May 31
Last Quarter
Jun 8
New
Jun 16
First Quarter
Jun 23
Full

Hourly Weather History & Observations

Time (EDT) Temp. Dew Point Humidity Pressure Visibility Wind Dir Wind Speed Gust Speed Precip Events Conditions
12:51 AM 48.0 °F 37.0 °F 66% 29.98 in 10.0 mi NW 15.0 mph 20.7 mph 0.00 in   Partly Cloudy
1:51 AM 48.0 °F 37.0 °F 66% 29.97 in 10.0 mi WNW 11.5 mph - N/A   Overcast
2:51 AM 46.9 °F 37.0 °F 68% 29.96 in 10.0 mi WNW 10.4 mph 23.0 mph N/A   Partly Cloudy
3:51 AM 46.9 °F 37.0 °F 68% 29.96 in 10.0 mi WNW 10.4 mph 18.4 mph N/A   Clear
4:51 AM 46.9 °F 37.0 °F 68% 29.98 in 10.0 mi West 13.8 mph 21.9 mph N/A   Clear
5:51 AM 46.9 °F 37.9 °F 71% 30.00 in 10.0 mi West 12.7 mph - N/A   Clear
6:51 AM 48.9 °F 37.9 °F 66% 30.01 in 10.0 mi West 10.4 mph - N/A   Clear
7:51 AM 51.1 °F 39.0 °F 63% 30.01 in 10.0 mi West 15.0 mph 25.3 mph N/A   Clear
8:51 AM 54.0 °F 37.9 °F 55% 30.01 in 10.0 mi NW 20.7 mph 29.9 mph N/A   Clear
9:51 AM 57.0 °F 37.9 °F 49% 30.01 in 10.0 mi NW 20.7 mph 31.1 mph N/A   Clear
10:51 AM 59.0 °F 39.0 °F 48% 30.01 in 10.0 mi NW 19.6 mph 32.2 mph N/A   Scattered Clouds
11:51 AM 60.1 °F 37.0 °F 42% 30.02 in 10.0 mi NNW 17.3 mph 33.4 mph N/A   Scattered Clouds
12:51 PM 62.1 °F 37.9 °F 41% 30.02 in 10.0 mi NW 16.1 mph 27.6 mph N/A   Partly Cloudy
1:51 PM 64.9 °F 37.0 °F 36% 30.01 in 10.0 mi NW 19.6 mph 33.4 mph N/A   Partly Cloudy
2:51 PM 64.0 °F 35.1 °F 34% 30.01 in 10.0 mi NW 20.7 mph 28.8 mph N/A   Overcast
3:51 PM 64.9 °F 35.1 °F 33% 30.01 in 10.0 mi NW 12.7 mph 26.5 mph N/A   Overcast
4:51 PM 64.9 °F 35.1 °F 33% 30.03 in 10.0 mi NNW 15.0 mph 31.1 mph N/A   Mostly Cloudy
5:51 PM 64.9 °F 35.1 °F 33% 30.05 in 10.0 mi NNW 9.2 mph 23.0 mph N/A   Partly Cloudy
6:51 PM 64.0 °F 34.0 °F 33% 30.07 in 10.0 mi NW 13.8 mph 26.5 mph N/A   Clear
7:51 PM 63.0 °F 33.1 °F 33% 30.10 in 10.0 mi NNW 10.4 mph - N/A   Clear
8:51 PM 59.0 °F 34.0 °F 39% 30.12 in 10.0 mi NW 5.8 mph - N/A   Clear
9:51 PM 55.9 °F 35.1 °F 45% 30.16 in 10.0 mi NNW 3.5 mph - N/A   Clear
10:51 PM 55.0 °F 36.0 °F 49% 30.18 in 10.0 mi Calm Calm - N/A   Clear
11:51 PM 52.0 °F 37.0 °F 57% 30.19 in 10.0 mi Calm Calm - N/A   Clear